Weather History for Brookings, SD

Change the Weather History Date:

Thursday, February 14, 2013

  Actual Average Record
Temperature  
Mean Temperature 16 °F -  
Max Temperature 28 °F 28 °F 55 °F (1999)
Min Temperature 5 °F 12 °F -18 °F (2007)
Degree Days  
Heating Degree Days 48    
Moisture  
Dew Point 16 °F    
Average Humidity 84    
Maximum Humidity 100    
Minimum Humidity 58    
Precipitation  
Precipitation 0.00 in - - ()
Sea Level Pressure  
Sea Level Pressure 30.00 in    
Wind  
Wind Speed 14 mph (NW)    
Max Wind Speed 23 mph    
Max Gust Speed 25 mph    
Visibility 8 miles    
Events      
Averages and records for this station are not official NWS values.
T = Trace of Precipitation, MM = Missing Value Source: NWS Daily Summary

Daily Weather History Graph

Daily Weather History Graph

Search for Another Location

Airport:

Trip Planner

Search our weather history database for the weather conditions in past years. The results will help you decide how hot, cold, wet, or windy it might be!

Date:

Astronomy

Feb. 14, 2013 Rise Set
Actual Time 7:27 AM CST 5:55 PM CST
Civil Twilight 6:58 AM CST 6:25 PM CST
Nautical Twilight 6:24 AM CST 6:59 PM CST
Astronomical Twilight 5:50 AM CST 7:33 PM CST
Moon 9:17 AM CST (2/14) 11:13 PM CST (2/14)
Length of Visible Light 11h 27m
Length of Day
10h 27m
Waxing Crescent, 22% of the Moon is Illuminated
Feb 14
Waxing Crescent
Feb 17
First Quarter
Feb 25
Full
Mar 4
Last Quarter
Mar 11
New

Hourly Weather History & Observations

Time (CST) Temp. Windchill Dew Point Humidity Pressure Visibility Wind Dir Wind Speed Gust Speed Precip Events Conditions
12:15 AM 28.4 °F 14.4 °F 26.6 °F 93% 29.74 in 10.0 mi NW 23.0 mph - N/A   Overcast
12:35 AM 28.4 °F 14.4 °F 26.6 °F 93% 29.76 in 10.0 mi NW 23.0 mph - N/A   Overcast
12:55 AM 28.4 °F 15.4 °F 26.6 °F 93% 29.76 in 10.0 mi WNW 19.6 mph 25.3 mph N/A   Overcast
1:15 AM 28.4 °F 16.2 °F 26.6 °F 93% 29.76 in 10.0 mi NW 17.3 mph - N/A   Overcast
1:35 AM 28.4 °F 16.6 °F 26.6 °F 93% 29.77 in 10.0 mi WNW 16.1 mph - N/A   Overcast
1:55 AM 28.4 °F 17.0 °F 24.8 °F 86% 29.78 in 10.0 mi WNW 15.0 mph - N/A   Overcast
2:15 AM 26.6 °F 15.7 °F 24.8 °F 93% 29.80 in 10.0 mi WNW 12.7 mph - N/A   Mostly Cloudy
2:35 AM 26.6 °F 15.2 °F 23.0 °F 86% 29.80 in 10.0 mi WNW 13.8 mph - N/A   Scattered Clouds
2:55 AM 24.8 °F 14.6 °F 23.0 °F 93% 29.81 in 10.0 mi WNW 10.4 mph - N/A   Overcast
3:15 AM 24.8 °F 14.0 °F 23.0 °F 93% 29.82 in 10.0 mi WNW 11.5 mph - N/A   Overcast
3:35 AM 26.6 °F 15.7 °F 24.8 °F 93% 29.83 in 10.0 mi WNW 12.7 mph - N/A   Overcast
4:15 AM 24.8 °F 12.9 °F 24.8 °F 100% 29.82 in 2.0 mi NW 13.8 mph - N/A   Overcast
4:35 AM 24.8 °F 14.0 °F 23.0 °F 93% 29.82 in 1.8 mi NW 11.5 mph - N/A   Overcast
4:55 AM 26.6 °F 17.5 °F 24.8 °F 93% 29.84 in 3.0 mi WNW 9.2 mph - N/A   Overcast
5:15 AM 26.6 °F 20.0 °F 24.8 °F 93% 29.84 in 4.0 mi WNW 5.8 mph - N/A   Overcast
5:35 AM 26.6 °F 20.0 °F 24.8 °F 93% 29.84 in 5.0 mi West 5.8 mph - N/A   Overcast
5:55 AM 26.6 °F 19.1 °F 24.8 °F 93% 29.84 in 4.0 mi West 6.9 mph - N/A   Overcast
6:15 AM 26.6 °F 21.2 °F 24.8 °F 93% 29.84 in 6.0 mi West 4.6 mph - N/A   Overcast
6:35 AM 26.6 °F - 24.8 °F 93% 29.83 in 6.0 mi Calm Calm - N/A   Overcast
6:55 AM 26.6 °F 22.6 °F 26.6 °F 100% 29.84 in 5.0 mi WSW 3.5 mph - N/A   Overcast
7:15 AM 26.6 °F 21.2 °F 26.6 °F 100% 29.84 in 5.0 mi WSW 4.6 mph - N/A   Overcast
7:35 AM 26.6 °F 22.6 °F 24.8 °F 93% 29.84 in 7.0 mi SW 3.5 mph - N/A   Overcast
7:55 AM 26.6 °F - 24.8 °F 93% 29.85 in 7.0 mi Calm Calm - N/A   Overcast
8:15 AM 28.4 °F 22.2 °F 26.6 °F 93% 29.85 in 7.0 mi West 5.8 mph - N/A   Overcast
8:35 AM 28.4 °F 18.5 °F 24.8 °F 86% 29.86 in 10.0 mi West 11.5 mph - N/A   Overcast
8:55 AM 28.4 °F 17.5 °F 24.8 °F 86% 29.87 in 9.0 mi West 13.8 mph - N/A   Overcast
9:15 AM 28.4 °F 18.0 °F 26.6 °F 93% 29.87 in 8.0 mi WNW 12.7 mph - N/A   Overcast
9:35 AM 28.4 °F 18.5 °F 26.6 °F 93% 29.88 in 2.5 mi WNW 11.5 mph - N/A   Overcast
9:55 AM 28.4 °F 19.1 °F 26.6 °F 93% 29.89 in 1.0 mi NW 10.4 mph - N/A   Overcast
10:15 AM 26.6 °F 13.8 °F 24.8 °F 93% 29.91 in 1.2 mi North 17.3 mph - N/A   Overcast
10:35 AM 26.6 °F 15.7 °F 23.0 °F 86% 29.93 in 1.2 mi North 12.7 mph - N/A   Overcast
10:55 AM 24.8 °F 12.9 °F 21.2 °F 86% 29.94 in 4.0 mi North 13.8 mph - N/A   Overcast
11:15 AM 24.8 °F 14.0 °F 19.4 °F 80% 29.95 in 5.0 mi North 11.5 mph - N/A   Overcast
11:35 AM 24.8 °F 13.4 °F 21.2 °F 86% 29.96 in 10.0 mi North 12.7 mph - N/A   Overcast
11:55 AM 24.8 °F 12.9 °F 21.2 °F 86% 29.97 in 10.0 mi North 13.8 mph - N/A   Overcast
12:15 PM 24.8 °F 12.9 °F 19.4 °F 80% 29.99 in 10.0 mi North 13.8 mph - N/A   Overcast
12:35 PM 24.8 °F 11.1 °F 19.4 °F 80% 29.99 in 3.0 mi NNW 18.4 mph - N/A   Mostly Cloudy
12:55 PM 24.8 °F 11.1 °F 19.4 °F 80% 30.00 in 5.0 mi NNW 18.4 mph - N/A   Overcast
1:15 PM 23.0 °F 9.2 °F 14.0 °F 68% 30.01 in 10.0 mi NNW 17.3 mph - N/A   Mostly Cloudy
1:35 PM 21.2 °F 6.8 °F 15.8 °F 80% 30.02 in 10.0 mi North 17.3 mph - N/A   Overcast
1:55 PM 21.2 °F 6.0 °F 15.8 °F 80% 30.03 in 10.0 mi NNW 19.6 mph - N/A   Overcast
2:15 PM 21.2 °F 6.8 °F 14.0 °F 74% 30.04 in 10.0 mi North 17.3 mph - N/A   Overcast
2:35 PM 21.2 °F 6.8 °F 15.8 °F 80% 30.05 in 10.0 mi NNW 17.3 mph - N/A   Mostly Cloudy
2:55 PM 21.2 °F 6.8 °F 10.4 °F 63% 30.07 in 10.0 mi North 17.3 mph - N/A   Mostly Cloudy
3:15 PM 21.2 °F 6.4 °F 12.2 °F 68% 30.08 in 10.0 mi NNW 18.4 mph 23.0 mph N/A   Mostly Cloudy
3:35 PM 19.4 °F 3.6 °F 8.6 °F 63% 30.09 in 10.0 mi NNW 19.6 mph - N/A   Overcast
3:55 PM 19.4 °F 3.6 °F 10.4 °F 68% 30.11 in 10.0 mi NNW 19.6 mph 24.2 mph N/A   Scattered Clouds
4:15 PM 19.4 °F 4.5 °F 6.8 °F 58% 30.13 in 10.0 mi NNW 17.3 mph - N/A   Clear
4:35 PM 19.4 °F 4.5 °F 10.4 °F 68% 30.14 in 10.0 mi NW 17.3 mph - N/A   Scattered Clouds
4:55 PM 19.4 °F 5.0 °F 6.8 °F 58% 30.16 in 10.0 mi NW 16.1 mph - N/A   Partly Cloudy
5:15 PM 17.6 °F 3.2 °F 6.8 °F 63% 30.17 in 10.0 mi NW 15.0 mph - N/A   Scattered Clouds
5:35 PM 15.8 °F 0.3 °F 6.8 °F 68% 30.18 in 10.0 mi NW 16.1 mph - N/A   Scattered Clouds
5:55 PM 14.0 °F -0.8 °F 6.8 °F 73% 30.19 in 10.0 mi NW 13.8 mph 17.3 mph N/A   Clear
6:15 PM 12.2 °F -3.1 °F 6.8 °F 79% 30.20 in 10.0 mi NW 13.8 mph 17.3 mph N/A   Clear
6:35 PM 12.2 °F -4.3 °F 6.8 °F 79% 30.21 in 10.0 mi NW 16.1 mph - N/A   Clear
6:55 PM 12.2 °F -3.7 °F 6.8 °F 79% 30.21 in 10.0 mi NW 15.0 mph - N/A   Clear
7:15 PM 12.2 °F -3.1 °F 6.8 °F 79% 30.22 in 10.0 mi NW 13.8 mph - N/A   Clear
7:35 PM 10.4 °F -5.4 °F 6.8 °F 85% 30.23 in 10.0 mi NW 13.8 mph - N/A   Clear
7:55 PM 10.4 °F -3.3 °F 6.8 °F 85% 30.24 in 10.0 mi NW 10.4 mph - N/A   Clear
8:15 PM 10.4 °F -3.3 °F 5.0 °F 79% 30.24 in 10.0 mi WNW 10.4 mph - N/A   Clear
8:35 PM 8.6 °F -1.3 °F 5.0 °F 85% 30.24 in 10.0 mi NW 5.8 mph - N/A   Clear
8:55 PM 8.6 °F -3.7 °F 5.0 °F 85% 30.24 in 10.0 mi NW 8.1 mph - N/A   Clear
9:15 PM 8.6 °F -1.3 °F 5.0 °F 85% 30.25 in 10.0 mi WNW 5.8 mph - N/A   Clear
9:35 PM 8.6 °F -3.7 °F 6.8 °F 92% 30.25 in 10.0 mi WNW 8.1 mph - N/A   Clear
9:55 PM 6.8 °F -5.9 °F 3.2 °F 85% 30.25 in 10.0 mi WNW 8.1 mph - N/A   Clear
10:15 PM 6.8 °F -3.5 °F 3.2 °F 85% 30.25 in 10.0 mi WNW 5.8 mph - N/A   Clear
10:35 PM 6.8 °F -4.8 °F -0.4 °F 72% 30.24 in 10.0 mi NW 6.9 mph - N/A   Clear
10:55 PM 6.8 °F -5.9 °F 3.2 °F 85% 30.24 in 10.0 mi NW 8.1 mph - N/A   Clear
11:15 PM 5.0 °F -5.6 °F -0.4 °F 78% 30.24 in 10.0 mi NW 5.8 mph - N/A   Partly Cloudy
11:35 PM 5.0 °F - -0.4 °F 78% 30.24 in 10.0 mi Calm Calm - N/A   Clear
11:55 PM 5.0 °F - 1.4 °F 85% 30.24 in 10.0 mi Calm Calm - N/A   Clear